AXM854 WMKK-VTCC

Flight info

Callsign AXM854
Flight time N/A
Altitude 36000
Route BIKDU1E BIKDU Y501 RINBA R325 VAS/N0451F370 A457 HTY/N0451F360 A464 UPNEP W19 BKK A464 ENBAT ENBAT2A
Aircraft A320/M-SDE3FGHIRWY/LB1

Departure

Time 2026-05-01 13:41
Airport Kuala Lumpur International Airport (WMKK)

Arrival

Time N/A
Airport Chiang Mai International Airport (VTCC)
Time Latitude Longitude Altitude Speed Heading
2026-05-01 13:07 2.73910 101.68708 58 ft 0 kts 146°
2026-05-01 13:29 2.73923 101.68699 54 ft 2 kts 146°
2026-05-01 13:29 2.73952 101.68680 51 ft 2 kts 146°
2026-05-01 13:30 2.73974 101.68666 51 ft 1 kts 157°
2026-05-01 13:31 2.73923 101.68635 51 ft 0 kts 235°
2026-05-01 13:33 2.73911 101.68616 58 ft 10 kts 239°
2026-05-01 13:34 2.73882 101.68494 58 ft 8 kts 252°
2026-05-01 13:34 2.73842 101.68428 53 ft 7 kts 237°
2026-05-01 13:35 2.73800 101.68364 53 ft 4 kts 237°
2026-05-01 13:35 2.73786 101.68342 55 ft 3 kts 237°
2026-05-01 13:35 2.73729 101.68260 52 ft 14 kts 234°
2026-05-01 13:36 2.73669 101.68197 55 ft 12 kts 188°
2026-05-01 13:36 2.73604 101.68228 55 ft 10 kts 146°
2026-05-01 13:36 2.73473 101.68315 56 ft 18 kts 147°
2026-05-01 13:37 2.73343 101.68393 56 ft 25 kts 147°
2026-05-01 13:37 2.73205 101.68497 54 ft 25 kts 146°
2026-05-01 13:37 2.73058 101.68596 50 ft 26 kts 146°
2026-05-01 13:37 2.72905 101.68699 54 ft 27 kts 147°
2026-05-01 13:38 2.72621 101.68890 52 ft 24 kts 145°
2026-05-01 13:38 2.72478 101.68989 51 ft 25 kts 145°
2026-05-01 13:38 2.72330 101.69092 57 ft 26 kts 146°
2026-05-01 13:39 2.72184 101.69188 55 ft 24 kts 146°
2026-05-01 13:39 2.72041 101.69284 55 ft 25 kts 146°
2026-05-01 13:39 2.71910 101.69374 55 ft 21 kts 147°
2026-05-01 13:39 2.71789 101.69342 58 ft 20 kts 232°
2026-05-01 13:40 2.71769 101.69219 54 ft 18 kts 298°
2026-05-01 13:40 2.71805 101.69133 55 ft 8 kts 263°
2026-05-01 13:40 2.71819 101.69094 56 ft 7 kts 322°
2026-05-01 13:40 2.71963 101.69003 53 ft 56 kts 327°
2026-05-01 13:41 2.72492 101.68644 57 ft 122 kts 326°
2026-05-01 13:41 2.73328 101.68083 76 ft 168 kts 328°
2026-05-01 13:41 2.74301 101.67428 712 ft 164 kts 327°
2026-05-01 13:41 2.75239 101.66798 1326 ft 167 kts 327°
2026-05-01 13:42 2.76270 101.66124 1652 ft 187 kts 328°
2026-05-01 13:42 2.77450 101.65409 1885 ft 209 kts 329°
2026-05-01 13:42 2.78773 101.64621 2105 ft 234 kts 330°
2026-05-01 13:42 2.80318 101.63913 2429 ft 257 kts 347°
2026-05-01 13:43 2.82127 101.63538 2978 ft 270 kts 349°
2026-05-01 13:43 2.83982 101.63177 3791 ft 273 kts 350°
2026-05-01 13:43 2.85856 101.62818 4644 ft 275 kts 350°
2026-05-01 13:43 2.87744 101.62454 5464 ft 278 kts 351°
2026-05-01 13:44 2.89650 101.62085 6270 ft 281 kts 351°
2026-05-01 13:44 2.91580 101.61708 7000 ft 284 kts 351°
2026-05-01 13:44 2.93532 101.61325 7731 ft 288 kts 350°
2026-05-01 13:44 2.95506 101.60917 8466 ft 292 kts 350°
2026-05-01 13:45 2.97502 101.60490 9202 ft 295 kts 349°
2026-05-01 13:45 2.99522 101.60053 9921 ft 299 kts 350°
2026-05-01 13:45 3.01579 101.59608 10386 ft 312 kts 350°
2026-05-01 13:45 3.03778 101.59137 10536 ft 334 kts 350°
2026-05-01 13:46 3.06102 101.58640 10936 ft 346 kts 349°
2026-05-01 13:46 3.08470 101.58133 11537 ft 350 kts 349°
2026-05-01 13:46 3.10866 101.57618 12169 ft 354 kts 349°
2026-05-01 13:46 3.13285 101.57099 12795 ft 357 kts 349°
2026-05-01 13:47 3.15726 101.56576 13409 ft 360 kts 349°
2026-05-01 13:47 3.18190 101.56049 13972 ft 364 kts 350°
2026-05-01 13:47 3.20673 101.55518 14499 ft 367 kts 350°
2026-05-01 13:47 3.23176 101.54984 15024 ft 370 kts 350°
2026-05-01 13:48 3.25701 101.54446 15550 ft 373 kts 350°
2026-05-01 13:48 3.28249 101.53901 16077 ft 376 kts 350°
2026-05-01 13:48 3.30814 101.53352 16601 ft 379 kts 350°
2026-05-01 13:48 3.33399 101.52798 17118 ft 382 kts 350°
2026-05-01 13:49 3.36005 101.52240 17624 ft 385 kts 350°
2026-05-01 13:49 3.38635 101.51677 18121 ft 388 kts 350°
2026-05-01 13:49 3.41279 101.51111 18551 ft 390 kts 350°
2026-05-01 13:49 3.43944 101.50541 18991 ft 393 kts 350°
2026-05-01 13:50 3.46624 101.49967 19420 ft 395 kts 350°
2026-05-01 13:50 3.49322 101.49390 19844 ft 398 kts 350°
2026-05-01 13:50 3.52037 101.48809 20260 ft 400 kts 350°
2026-05-01 13:50 3.54772 101.48223 20664 ft 403 kts 350°
2026-05-01 13:51 3.57519 101.47634 21080 ft 406 kts 350°
2026-05-01 13:51 3.60290 101.47039 21474 ft 408 kts 350°
2026-05-01 13:51 3.63074 101.46442 21879 ft 411 kts 351°
2026-05-01 13:51 3.65879 101.45843 22270 ft 413 kts 350°
2026-05-01 13:52 3.68704 101.45241 22648 ft 416 kts 350°
2026-05-01 13:52 3.71543 101.44635 23031 ft 418 kts 351°
2026-05-01 13:52 3.74360 101.44032 23412 ft 421 kts 350°
2026-05-01 13:52 3.77231 101.43414 23732 ft 423 kts 350°
2026-05-01 13:53 3.80116 101.42796 24061 ft 425 kts 350°
2026-05-01 13:53 3.85844 101.41241 24694 ft 431 kts 339°
2026-05-01 13:53 3.88592 101.40014 25013 ft 433 kts 338°
2026-05-01 13:54 3.91351 101.38782 25327 ft 435 kts 338°
2026-05-01 13:54 3.94122 101.37548 25640 ft 437 kts 338°
2026-05-01 13:54 3.96908 101.36311 25949 ft 439 kts 338°
2026-05-01 13:54 3.99700 101.35071 26262 ft 440 kts 338°
2026-05-01 13:55 4.02506 101.33823 26557 ft 442 kts 338°
2026-05-01 13:55 4.05323 101.32569 26853 ft 444 kts 338°
2026-05-01 13:55 4.08148 101.31311 27143 ft 445 kts 338°
2026-05-01 13:55 4.10984 101.30052 27418 ft 447 kts 338°
2026-05-01 13:56 4.13833 101.28784 27717 ft 448 kts 338°
2026-05-01 13:56 4.16683 101.27510 28006 ft 450 kts 338°
2026-05-01 13:56 4.19552 101.26229 28297 ft 452 kts 338°
2026-05-01 13:56 4.22429 101.24948 28582 ft 453 kts 338°
2026-05-01 13:57 4.25314 101.23666 28864 ft 455 kts 338°
2026-05-01 13:57 4.27273 101.22795 29051 ft 456 kts 338°
2026-05-01 13:57 4.31119 101.21084 29412 ft 458 kts 338°
2026-05-01 13:57 4.34037 101.19787 29674 ft 460 kts 338°
2026-05-01 13:58 4.36965 101.18484 29919 ft 461 kts 338°
2026-05-01 13:58 4.39901 101.17176 30125 ft 463 kts 338°
2026-05-01 13:58 4.42851 101.15863 30321 ft 464 kts 338°
2026-05-01 13:58 4.45806 101.14548 30520 ft 466 kts 338°
2026-05-01 13:59 4.48775 101.13226 30723 ft 467 kts 338°
2026-05-01 13:59 4.51747 101.11901 30923 ft 468 kts 338°
2026-05-01 13:59 4.54722 101.10574 31188 ft 468 kts 338°
2026-05-01 13:59 4.57695 101.09247 31480 ft 467 kts 338°
2026-05-01 14:00 4.60666 101.07936 31764 ft 466 kts 339°
2026-05-01 14:00 4.63637 101.06651 32052 ft 465 kts 339°
2026-05-01 14:00 4.66610 101.05381 32345 ft 464 kts 339°
2026-05-01 14:00 4.69581 101.04116 32630 ft 464 kts 339°
2026-05-01 14:01 4.72545 101.02851 32916 ft 463 kts 339°
2026-05-01 14:01 4.75507 101.01583 33194 ft 462 kts 339°
2026-05-01 14:01 4.78461 101.00311 33484 ft 462 kts 339°
2026-05-01 14:01 4.81406 100.99037 33778 ft 461 kts 339°
2026-05-01 14:02 4.84352 100.97763 34038 ft 461 kts 339°
2026-05-01 14:02 4.87295 100.96493 34256 ft 460 kts 339°
2026-05-01 14:02 4.90233 100.95227 34497 ft 460 kts 339°
2026-05-01 14:02 4.93173 100.93961 34731 ft 459 kts 339°
2026-05-01 14:03 4.96101 100.92699 34959 ft 458 kts 339°
2026-05-01 14:03 4.99029 100.91433 35184 ft 458 kts 338°
2026-05-01 14:03 5.01953 100.90168 35421 ft 457 kts 339°
2026-05-01 14:03 5.04872 100.88907 35635 ft 457 kts 338°
2026-05-01 14:04 5.07790 100.87646 35828 ft 457 kts 339°
2026-05-01 14:04 5.10702 100.86386 35882 ft 455 kts 338°
2026-05-01 14:04 5.15517 100.84304 35886 ft 453 kts 339°
2026-05-01 14:05 5.22271 100.81388 35887 ft 452 kts 339°
2026-05-01 14:05 5.28037 100.78898 35893 ft 450 kts 338°
2026-05-01 14:06 5.33788 100.76406 35893 ft 450 kts 338°
2026-05-01 14:06 5.39541 100.73916 35901 ft 450 kts 338°
2026-05-01 14:07 5.45298 100.71430 35890 ft 451 kts 338°
2026-05-01 14:08 5.53939 100.67697 35893 ft 451 kts 338°
2026-05-01 14:08 5.59693 100.65205 35894 ft 451 kts 338°
2026-05-01 14:09 5.65451 100.62709 35898 ft 450 kts 338°
2026-05-01 14:09 5.71203 100.60220 35903 ft 450 kts 338°
2026-05-01 14:10 5.76953 100.57731 35904 ft 450 kts 338°
2026-05-01 14:10 5.82706 100.55241 35899 ft 450 kts 338°
2026-05-01 14:11 5.88461 100.52749 35899 ft 450 kts 338°
2026-05-01 14:11 5.97084 100.49010 35901 ft 450 kts 338°
2026-05-01 14:12 6.02794 100.46538 35903 ft 449 kts 338°
2026-05-01 14:12 6.08521 100.44056 35902 ft 448 kts 338°
2026-05-01 14:13 6.13319 100.41972 35900 ft 448 kts 338°
2026-05-01 14:13 6.20192 100.39863 35899 ft 444 kts 355°
2026-05-01 14:14 6.26355 100.39814 35897 ft 443 kts
2026-05-01 14:14 6.32525 100.39907 35900 ft 443 kts
2026-05-01 14:15 6.38697 100.39984 35919 ft 444 kts
2026-05-01 14:15 6.44872 100.40061 35911 ft 444 kts
2026-05-01 14:16 6.51053 100.40140 35910 ft 444 kts
2026-05-01 14:16 6.57238 100.40154 35912 ft 445 kts
2026-05-01 14:17 6.63426 100.39920 35902 ft 445 kts 359°
2026-05-01 14:17 6.69616 100.39630 35904 ft 445 kts 359°
2026-05-01 14:18 6.74761 100.39428 35900 ft 445 kts 359°
2026-05-01 14:18 6.80949 100.39223 35904 ft 445 kts 359°
2026-05-01 14:19 6.87136 100.39018 35905 ft 445 kts 359°
2026-05-01 14:19 6.93321 100.38806 35904 ft 444 kts
2026-05-01 14:20 7.02576 100.39065 35898 ft 443 kts
2026-05-01 14:21 7.08726 100.39456 35879 ft 443 kts
2026-05-01 14:21 7.14891 100.39772 35881 ft 443 kts
2026-05-01 14:22 7.24145 100.40159 35889 ft 444 kts
2026-05-01 14:22 7.30312 100.40424 35890 ft 444 kts
2026-05-01 14:23 7.36476 100.40696 35891 ft 443 kts
2026-05-01 14:23 7.42640 100.40971 35890 ft 443 kts
2026-05-01 14:24 7.48801 100.41245 35890 ft 443 kts
2026-05-01 14:24 7.54969 100.41515 35887 ft 444 kts
2026-05-01 14:25 7.61136 100.41788 35888 ft 444 kts
2026-05-01 14:25 7.67307 100.42064 35889 ft 444 kts
2026-05-01 14:26 7.76575 100.42470 35895 ft 444 kts
2026-05-01 14:27 7.82748 100.42748 35903 ft 444 kts
2026-05-01 14:27 7.88890 100.43017 35904 ft 444 kts
2026-05-01 14:28 7.98202 100.43424 35908 ft 445 kts
2026-05-01 14:28 8.04345 100.43702 35910 ft 445 kts
2026-05-01 14:29 8.10533 100.43969 35907 ft 445 kts
2026-05-01 14:30 8.22944 100.44367 35907 ft 445 kts
2026-05-01 14:31 8.32216 100.44668 35905 ft 444 kts
2026-05-01 14:31 8.38390 100.44883 35904 ft 444 kts
2026-05-01 14:32 8.44562 100.45094 35902 ft 444 kts
2026-05-01 14:32 8.50697 100.45301 35902 ft 444 kts
2026-05-01 14:33 8.56872 100.45508 35904 ft 444 kts
2026-05-01 14:33 8.63053 100.45710 35904 ft 444 kts
2026-05-01 14:34 8.69224 100.45908 35903 ft 444 kts
2026-05-01 14:34 8.75432 100.46117 35901 ft 443 kts
2026-05-01 14:35 8.81554 100.46328 35906 ft 443 kts
2026-05-01 14:35 8.87713 100.46535 35906 ft 443 kts
2026-05-01 14:36 8.93875 100.46740 35905 ft 443 kts
2026-05-01 14:36 9.00032 100.46944 35916 ft 443 kts
2026-05-01 14:37 9.06198 100.47149 35916 ft 443 kts
2026-05-01 14:37 9.12364 100.47363 35908 ft 443 kts
2026-05-01 14:38 9.18530 100.47578 35913 ft 443 kts
2026-05-01 14:38 9.24699 100.47789 35909 ft 444 kts
2026-05-01 14:39 9.30868 100.47995 35911 ft 444 kts
2026-05-01 14:39 9.37041 100.48203 35913 ft 444 kts
2026-05-01 14:40 9.43214 100.48418 35911 ft 444 kts
2026-05-01 14:40 9.49385 100.48633 35908 ft 444 kts
2026-05-01 14:41 9.55551 100.48844 35909 ft 443 kts
2026-05-01 14:41 9.61724 100.49048 35908 ft 444 kts
2026-05-01 14:42 9.67899 100.49255 35910 ft 444 kts
2026-05-01 14:42 9.74076 100.49481 35909 ft 444 kts
2026-05-01 14:43 9.80257 100.49735 35907 ft 445 kts
2026-05-01 14:43 9.86438 100.49995 35917 ft 445 kts
2026-05-01 14:44 9.92625 100.50256 35920 ft 445 kts
2026-05-01 14:44 10.01912 100.50629 35930 ft 445 kts
2026-05-01 14:45 10.11200 100.51009 35926 ft 446 kts
2026-05-01 14:46 10.17395 100.51258 35924 ft 446 kts
2026-05-01 14:46 10.26699 100.51648 35927 ft 446 kts
2026-05-01 14:47 10.32907 100.51908 35932 ft 447 kts
2026-05-01 14:48 10.42224 100.52283 35932 ft 447 kts
2026-05-01 14:48 10.51506 100.52672 35922 ft 448 kts
2026-05-01 14:49 10.63959 100.53177 35920 ft 448 kts
2026-05-01 14:50 10.76416 100.53699 35919 ft 448 kts
2026-05-01 14:51 10.85783 100.54082 35912 ft 450 kts
2026-05-01 14:52 10.95182 100.54469 35911 ft 451 kts
2026-05-01 14:53 11.04601 100.54848 35919 ft 452 kts
2026-05-01 14:53 11.10889 100.55059 35923 ft 452 kts
2026-05-01 14:54 11.17186 100.55265 35930 ft 453 kts
2026-05-01 14:54 11.23484 100.55488 35930 ft 453 kts
2026-05-01 14:55 11.29781 100.55712 35927 ft 453 kts
2026-05-01 14:55 11.36083 100.55936 35928 ft 453 kts
2026-05-01 14:56 11.42383 100.56149 35933 ft 453 kts
2026-05-01 14:56 11.48685 100.56370 35933 ft 453 kts
2026-05-01 14:57 11.54984 100.56588 35929 ft 453 kts
2026-05-01 14:57 11.64436 100.56926 35929 ft 453 kts
2026-05-01 14:58 11.70733 100.57147 35933 ft 453 kts
2026-05-01 14:58 11.77030 100.57364 35934 ft 452 kts
2026-05-01 14:59 11.83277 100.57583 35934 ft 448 kts
2026-05-01 14:59 11.89517 100.57808 35934 ft 449 kts
2026-05-01 15:00 11.98885 100.58139 35934 ft 449 kts 360°
2026-05-01 15:01 12.05128 100.58263 35933 ft 449 kts 358°
2026-05-01 15:01 12.11371 100.58229 35930 ft 448 kts 358°
2026-05-01 15:02 12.17609 100.58177 35921 ft 448 kts 358°
2026-05-01 15:02 12.22788 100.58165 35922 ft 448 kts 358°
2026-05-01 15:03 12.30080 100.58177 35913 ft 448 kts 358°
2026-05-01 15:03 12.35264 100.58185 35911 ft 448 kts 358°
2026-05-01 15:04 12.41498 100.58184 35907 ft 448 kts 357°
2026-05-01 15:04 12.47732 100.58175 35901 ft 448 kts 357°
2026-05-01 15:05 12.53967 100.58172 35903 ft 448 kts 358°
2026-05-01 15:05 12.60200 100.58179 35903 ft 448 kts 357°
2026-05-01 15:06 12.66440 100.58181 35899 ft 448 kts 357°
2026-05-01 15:06 12.72684 100.58179 35899 ft 449 kts 357°
2026-05-01 15:07 12.78930 100.58182 35896 ft 449 kts 357°
2026-05-01 15:07 12.85178 100.58177 35897 ft 449 kts 357°
2026-05-01 15:08 12.91427 100.58169 35900 ft 449 kts 357°
2026-05-01 15:08 12.97677 100.58171 35902 ft 449 kts 357°
2026-05-01 15:09 13.03932 100.58181 35899 ft 450 kts 357°
2026-05-01 15:09 13.10190 100.58182 35901 ft 450 kts 357°
2026-05-01 15:10 13.16444 100.58174 35903 ft 450 kts 357°
2026-05-01 15:10 13.25838 100.58177 35906 ft 450 kts 357°
2026-05-01 15:11 13.35216 100.58168 35921 ft 449 kts 357°
2026-05-01 15:12 13.41461 100.58272 35924 ft 449 kts 359°
2026-05-01 15:12 13.50818 100.58587 35922 ft 448 kts 359°
2026-05-01 15:14 13.66403 100.59015 35922 ft 448 kts 358°
2026-05-01 15:14 13.75750 100.59256 35918 ft 448 kts 358°
2026-05-01 15:15 13.88213 100.59475 35919 ft 445 kts 352°
2026-05-01 15:16 13.94182 100.58029 35916 ft 440 kts 339°
2026-05-01 15:16 13.99977 100.56118 35920 ft 441 kts 339°
2026-05-01 15:18 14.14588 100.51302 35894 ft 443 kts 339°
2026-05-01 15:19 14.26332 100.47429 35904 ft 443 kts 339°
2026-05-01 15:19 14.35145 100.44519 35912 ft 443 kts 339°
2026-05-01 15:20 14.43959 100.41600 35900 ft 444 kts 339°
2026-05-01 15:21 14.49841 100.39653 35900 ft 444 kts 339°
2026-05-01 15:21 14.55720 100.37704 35903 ft 444 kts 339°
2026-05-01 15:22 14.64541 100.34778 35904 ft 444 kts 339°
2026-05-01 15:22 14.70414 100.32829 35905 ft 444 kts 339°
2026-05-01 15:23 14.76293 100.30880 35889 ft 444 kts 339°
2026-05-01 15:23 14.82182 100.28926 35896 ft 444 kts 339°
2026-05-01 15:24 14.88073 100.26968 35890 ft 445 kts 339°
2026-05-01 15:24 14.93967 100.25007 35894 ft 445 kts 339°
2026-05-01 15:25 14.99862 100.23046 35903 ft 445 kts 339°
2026-05-01 15:25 15.05767 100.21087 35905 ft 446 kts 339°
2026-05-01 15:26 15.11673 100.19125 35900 ft 446 kts 339°
2026-05-01 15:26 15.17594 100.17159 35893 ft 448 kts 339°
2026-05-01 15:27 15.23534 100.15181 35899 ft 449 kts 339°
2026-05-01 15:28 15.32458 100.12210 35902 ft 449 kts 339°
2026-05-01 15:28 15.38412 100.10221 35905 ft 450 kts 339°
2026-05-01 15:29 15.47354 100.07232 35900 ft 451 kts 339°
2026-05-01 15:30 15.59331 100.03231 35899 ft 453 kts 339°
2026-05-01 15:31 15.77342 99.97200 35911 ft 454 kts 338°
2026-05-01 15:32 15.89380 99.93170 35896 ft 455 kts 338°
2026-05-01 15:34 16.07485 99.87091 35897 ft 456 kts 338°